Lid_Strength_Index
-0 -0 -0 0 0 -1 -1 -1 -1 -1 -1 -1 -1 -1 -1 -1 -1 -1 -0 -1 0 -0 -0 0 -1 -1 1 6 6 4 0 1 5 5 7 9 10 11 11 11 11 13 12 11 11 11 11
0 0 -0 0 1 -0 -1 -1 -1 -1 -1 -1 -1 -1 -1 -1 -1 -1 0 -0 0 -0 -0 1 -1 -1 4 9 4 4 5 5 6 7 8 8 9 10 11 12 12 12 12 11 11 11 11
1 1 0 1 1 -0 -1 -1 -1 -1 -1 -1 -1 -1 -1 -1 -1 -1 1 0 -0 0 -0 1 -1 1 6 8 4 5 5 6 6 7 8 8 9 10 10 12 11 12 13 13 13 12 12
1 1 1 1 2 1 -0 -1 -0 -1 -1 -1 -1 -1 -1 -1 -1 -1 -0 0 0 -1 0 1 -1 4 9 4 4 5 5 6 6 6 7 7 7 9 11 10 12 14 15 17 15 12 12
-0 2 2 2 1 2 0 -0 -0 -1 -1 -1 -1 -1 -1 -1 -1 -1 -1 1 1 0 -0 -1 3 8 10 2 6 6 6 6 7 7 7 6 8 11 11 14 16 16 18 18 16 13 13
0 2 2 2 1 2 1 0 -0 -0 -0 -1 -1 -1 -1 -1 -1 -1 -1 -0 1 2 2 2 5 10 7 7 5 6 6 6 7 8 8 9 11 13 14 16 18 17 17 17 17 15 13
0 1 3 1 3 1 2 1 0 -0 -0 -1 -1 -1 -1 -1 -1 -1 1 5 9 10 8 10 10 9 8 5 5 7 6 7 8 10 13 12 14 15 13 14 16 16 17 17 15 14 14
1 2 4 4 3 2 2 2 1 0 0 -0 -1 -1 -1 -1 -1 -0 2 9 10 9 12 8 9 7 5 5 8 8 6 9 11 13 13 14 15 13 12 13 14 15 16 16 15 14 14
1 2 3 5 4 3 3 3 3 2 2 2 1 0 -0 -1 -0 2 3 4 4 6 12 10 8 8 7 6 8 8 7 10 12 13 14 15 14 12 13 15 14 16 16 17 16 15 16
2 2 3 6 5 4 3 3 4 4 4 3 2 2 2 -0 2 3 4 2 2 5 13 12 10 9 7 7 9 7 7 9 12 13 13 14 13 13 14 15 14 16 14 14 15 17 18
1 2 3 6 5 4 4 3 4 4 4 4 4 3 2 1 3 4 3 1 3 6 18 11 10 6 7 9 10 9 8 9 12 12 13 14 13 13 14 14 13 15 13 14 16 17 17
-0 1 2 5 7 5 4 3 4 4 5 5 4 4 3 2 2 3 2 2 3 12 19 13 10 11 11 11 10 10 10 9 10 11 12 13 11 12 13 12 13 12 14 15 16 18 21
-1 -1 1 3 6 6 4 4 4 4 4 5 5 4 4 3 4 3 2 4 13 18 12 14 13 12 13 13 11 11 12 13 13 15 15 14 14 12 11 13 12 15 16 20 21 21 21
-1 -1 -0 1 3 5 5 5 5 5 4 4 5 5 5 4 3 3 4 9 18 14 13 11 12 13 14 12 13 13 13 13 13 14 15 16 17 12 11 12 13 15 16 19 22 23 21
-1 -1 -1 -0 1 3 5 5 6 5 5 5 5 6 7 4 3 3 7 14 15 13 10 12 12 14 15 14 13 13 13 13 13 13 15 17 18 13 12 12 11 14 17 15 19 26 22
-0 -1 -1 -1 -0 1 4 6 6 6 5 5 8 9 8 5 3 4 10 13 12 9 9 11 14 13 15 15 15 15 15 13 13 13 13 14 18 15 13 12 12 14 13 17 18 24 25
-0 -0 -0 -1 -1 -0 1 4 5 6 5 5 9 12 8 4 3 8 13 12 11 9 9 10 12 13 13 14 13 14 14 14 13 13 13 14 15 17 14 14 15 15 16 16 16 18 22
1 0 -0 -0 -1 -1 -0 2 4 6 5 8 11 16 8 5 11 13 13 11 9 9 9 9 9 11 12 12 13 13 13 13 10 11 13 13 14 17 16 14 13 14 15 15 18 20 20
0 0 0 -0 -0 -1 -1 0 2 5 5 10 13 14 8 6 14 14 11 10 9 9 9 10 11 10 10 12 13 13 12 10 10 11 12 11 15 20 16 15 16 16 15 15 15 16 19
1 0 0 0 -0 -0 -0 -0 1 2 4 9 14 16 13 10 10 12 12 11 11 8 9 8 9 9 10 11 10 12 12 10 9 10 8 9 14 16 17 17 14 16 15 15 14 17 17
2 1 0 0 0 -0 -0 -1 0 1 1 8 14 15 14 16 14 12 10 10 12 12 9 9 10 10 11 13 13 13 11 10 9 8 9 11 15 14 14 14 14 15 15 15 15 14 16
2 2 1 1 1 0 -0 -0 -0 0 1 7 14 15 14 15 15 12 12 12 12 11 10 12 12 10 10 12 12 13 11 11 11 11 11 11 15 14 16 13 13 14 13 14 14 14 15
2 2 2 1 1 1 -0 -0 -0 -0 1 6 9 9 12 14 15 13 13 13 11 11 10 10 10 11 11 10 9 9 9 9 9 11 11 12 14 17 20 15 15 17 15 15 15 14 14
2 2 2 2 1 1 0 0 -0 -0 1 6 7 9 13 19 14 14 14 13 13 12 12 12 9 11 10 10 10 10 10 10 10 10 9 12 14 14 18 15 20 15 15 13 13 13 12
2 2 2 2 2 1 1 0 0 -0 -0 4 7 9 12 20 12 13 14 14 13 13 13 13 13 13 9 11 13 14 15 13 15 14 11 10 13 16 17 17 17 16 15 14 14 14 11
2 2 2 2 1 2 1 1 0 0 -0 2 4 7 10 15 15 10 12 12 16 18 17 15 14 13 12 13 15 18 18 16 17 15 13 11 11 14 18 19 22 17 15 13 14 18 14
2 2 2 1 2 1 2 1 1 0 0 2 4 4 8 14 12 11 13 12 11 15 16 19 17 14 13 17 19 19 19 18 18 17 15 14 15 16 17 19 19 16 16 15 19 17 16
3 2 2 2 1 1 1 1 1 1 1 2 4 3 6 12 12 10 9 11 12 13 15 15 13 14 16 17 17 21 22 20 20 19 17 15 15 16 17 19 20 15 16 16 15 15 15
3 3 2 2 2 1 1 1 1 1 1 1 5 3 3 8 9 8 8 8 7 8 10 14 13 14 11 15 18 19 23 24 25 23 18 18 16 18 16 16 15 16 15 14 14 14 14